TimeCDT,TemperatureF,Dew PointF,Humidity,Sea Level PressureIn,VisibilityMPH,Wind Direction,Wind SpeedMPH,Gust SpeedMPH,PrecipitationIn,Events,Conditions,WindDirDegrees,DateUTC
12:52 AM,75.0,70.0,84,30.01,-9999.0,SSE,3.5,-,N/A,,Unknown,160,2013-08-27 05:52:00
1:52 AM,75.0,70.0,84,30.01,-9999.0,South,3.5,-,N/A,,Unknown,180,2013-08-27 06:52:00
2:52 AM,73.9,69.1,85,30.00,-9999.0,South,4.6,-,N/A,,Unknown,190,2013-08-27 07:52:00
3:52 AM,73.0,69.1,87,30.00,-9999.0,South,4.6,-,N/A,,Unknown,190,2013-08-27 08:52:00
4:52 AM,73.9,68.0,82,29.99,-9999.0,SSW,3.5,-,N/A,,Unknown,200,2013-08-27 09:52:00
5:52 AM,72.0,68.0,87,30.00,-9999.0,South,3.5,-,N/A,,Unknown,180,2013-08-27 10:52:00
6:52 AM,71.1,66.9,87,30.02,-9999.0,Calm,Calm,-,N/A,,Unknown,0,2013-08-27 11:52:00
7:52 AM,75.0,69.1,82,30.03,-9999.0,South,3.5,-,N/A,,Unknown,190,2013-08-27 12:52:00
8:52 AM,79.0,68.0,69,30.03,-9999.0,Variable,5.8,-,N/A,,Unknown,0,2013-08-27 13:52:00
9:52 AM,84.9,68.0,57,30.02,-9999.0,Variable,5.8,-,N/A,,Unknown,0,2013-08-27 14:52:00
10:52 AM,89.1,66.9,48,30.01,-9999.0,SW,6.9,-,N/A,,Unknown,220,2013-08-27 15:52:00
11:52 AM,91.9,66.0,42,30.00,-9999.0,SW,10.4,19.6,N/A,,Unknown,220,2013-08-27 16:52:00
12:52 PM,93.9,64.9,38,29.98,-9999.0,SSW,10.4,-,N/A,,Unknown,210,2013-08-27 17:52:00
1:52 PM,95.0,64.0,36,29.96,-9999.0,South,11.5,17.3,N/A,,Unknown,190,2013-08-27 18:52:00
2:52 PM,96.1,64.0,35,29.94,-9999.0,SSW,10.4,-,N/A,,Unknown,210,2013-08-27 19:52:00
3:52 PM,96.1,63.0,33,29.93,-9999.0,SW,9.2,-,N/A,,Unknown,220,2013-08-27 20:52:00
4:52 PM,96.1,63.0,33,29.92,-9999.0,SW,8.1,-,N/A,,Unknown,220,2013-08-27 21:52:00
5:52 PM,93.9,62.1,35,29.93,-9999.0,SW,6.9,-,N/A,,Unknown,220,2013-08-27 22:52:00
6:52 PM,91.9,64.0,39,29.93,-9999.0,SSW,4.6,-,N/A,,Unknown,210,2013-08-27 23:52:00
7:52 PM,84.0,66.0,55,29.93,-9999.0,South,4.6,-,N/A,,Unknown,180,2013-08-28 00:52:00
8:52 PM,82.0,66.0,58,29.94,-9999.0,South,4.6,-,N/A,,Unknown,190,2013-08-28 01:52:00
9:52 PM,79.0,66.0,64,29.95,-9999.0,SSW,3.5,-,N/A,,Unknown,200,2013-08-28 02:52:00
10:52 PM,78.1,66.0,66,29.95,-9999.0,South,3.5,-,N/A,,Unknown,170,2013-08-28 03:52:00
11:52 PM,73.9,66.0,76,29.96,-9999.0,South,3.5,-,N/A,,Unknown,180,2013-08-28 04:52:00